TimeMDT,TemperatureF,Dew PointF,Humidity,Sea Level PressureIn,VisibilityMPH,Wind Direction,Wind SpeedMPH,Gust SpeedMPH,PrecipitationIn,Events,Conditions,WindDirDegrees,DateUTC
12:15 AM,51.8,33.8,50,30.25,10.0,North,6.9,-,N/A,,Clear,10,2013-08-19 06:15:00
12:35 AM,53.6,33.8,47,30.25,10.0,North,8.1,-,N/A,,Clear,10,2013-08-19 06:35:00
12:55 AM,51.8,33.8,50,30.25,10.0,North,8.1,-,N/A,,Clear,360,2013-08-19 06:55:00
1:15 AM,51.8,35.6,54,30.26,10.0,North,8.1,-,N/A,,Clear,360,2013-08-19 07:15:00
1:35 AM,50.0,33.8,54,30.25,10.0,North,6.9,-,N/A,,Clear,360,2013-08-19 07:35:00
1:55 AM,50.0,35.6,58,30.25,10.0,North,5.8,-,N/A,,Clear,10,2013-08-19 07:55:00
2:15 AM,48.2,33.8,58,30.25,10.0,North,6.9,-,N/A,,Clear,360,2013-08-19 08:15:00
2:35 AM,48.2,33.8,58,30.25,10.0,North,9.2,-,N/A,,Clear,360,2013-08-19 08:35:00
2:55 AM,48.2,33.8,58,30.25,10.0,North,9.2,-,N/A,,Clear,360,2013-08-19 08:55:00
3:15 AM,48.2,33.8,58,30.25,10.0,North,5.8,-,N/A,,Clear,360,2013-08-19 09:15:00
3:35 AM,46.4,33.8,62,30.25,10.0,North,8.1,-,N/A,,Clear,350,2013-08-19 09:35:00
3:55 AM,46.4,33.8,62,30.25,10.0,NNE,3.5,-,N/A,,Clear,20,2013-08-19 09:55:00
4:15 AM,46.4,35.6,66,30.26,10.0,NNE,3.5,-,N/A,,Clear,30,2013-08-19 10:15:00
4:35 AM,46.4,33.8,62,30.26,10.0,North,3.5,-,N/A,,Clear,360,2013-08-19 10:35:00
4:56 AM,46.4,33.8,62,30.26,10.0,NE,3.5,-,N/A,,Clear,50,2013-08-19 10:56:00
5:15 AM,44.6,35.6,71,30.26,10.0,NNE,4.6,-,N/A,,Clear,20,2013-08-19 11:15:00
5:35 AM,44.6,33.8,66,30.26,10.0,North,8.1,-,N/A,,Clear,360,2013-08-19 11:35:00
5:55 AM,44.6,35.6,71,30.27,10.0,North,6.9,-,N/A,,Clear,360,2013-08-19 11:55:00
6:35 AM,44.6,35.6,71,30.28,10.0,North,5.8,-,N/A,,Clear,10,2013-08-19 12:35:00
6:51 AM,46.4,35.6,66,30.28,10.0,Calm,Calm,-,N/A,,Clear,0,2013-08-19 12:51:00
7:56 AM,50.0,35.6,58,30.29,10.0,North,6.9,-,N/A,,Clear,360,2013-08-19 13:56:00
8:55 AM,57.2,35.6,44,30.30,10.0,Calm,Calm,-,N/A,,Smoke,0,2013-08-19 14:55:00
9:55 AM,62.6,35.6,37,30.29,10.0,Calm,Calm,-,N/A,,Smoke,0,2013-08-19 15:55:00
10:51 AM,68.0,33.8,28,30.29,10.0,Calm,Calm,-,N/A,,Smoke,0,2013-08-19 16:51:00
11:51 AM,77.0,33.8,21,30.27,10.0,SSE,5.8,-,N/A,,Smoke,150,2013-08-19 17:51:00
12:53 PM,82.4,30.2,15,30.26,10.0,SSW,9.2,-,N/A,,Smoke,210,2013-08-19 18:53:00
1:52 PM,84.2,30.2,14,30.23,10.0,SW,8.1,-,N/A,,Smoke,230,2013-08-19 19:52:00
2:52 PM,84.2,28.4,13,30.22,10.0,WSW,12.7,20.7,N/A,,Smoke,250,2013-08-19 20:52:00
3:53 PM,87.8,26.6,11,30.20,10.0,SW,12.7,32.2,N/A,,Smoke,220,2013-08-19 21:53:00
4:52 PM,87.8,26.6,11,30.19,10.0,SW,8.1,21.9,N/A,,Smoke,230,2013-08-19 22:52:00
5:52 PM,86.0,26.6,12,30.17,10.0,WSW,17.3,24.2,N/A,,Clear,240,2013-08-19 23:52:00
6:54 PM,82.4,24.8,12,30.17,10.0,SSW,13.8,19.6,N/A,,Clear,210,2013-08-20 00:54:00
7:56 PM,78.8,28.4,16,30.18,10.0,SW,6.9,-,N/A,,Clear,220,2013-08-20 01:56:00
8:51 PM,75.2,30.2,19,30.19,10.0,Calm,Calm,-,N/A,,Clear,0,2013-08-20 02:51:00
8:55 PM,73.4,30.2,20,30.19,10.0,Calm,Calm,-,N/A,,Clear,0,2013-08-20 02:55:00
9:15 PM,69.8,32.0,25,30.20,10.0,Calm,Calm,-,N/A,,Clear,0,2013-08-20 03:15:00
9:55 PM,68.0,28.4,23,30.21,10.0,Calm,Calm,-,N/A,,Clear,0,2013-08-20 03:55:00
10:15 PM,71.6,30.2,22,30.21,10.0,Calm,Calm,-,N/A,,Clear,0,2013-08-20 04:15:00
10:35 PM,60.8,33.8,36,30.21,10.0,Calm,Calm,-,N/A,,Clear,0,2013-08-20 04:35:00
11:35 PM,57.2,39.2,51,30.21,10.0,North,3.5,-,N/A,,Clear,350,2013-08-20 05:35:00
11:55 PM,57.2,37.4,48,30.20,10.0,WNW,4.6,-,N/A,,Clear,300,2013-08-20 05:55:00